Weather History for Beaufort, NC

Change the Weather History Date:

Wednesday, February 20, 2013

  Actual Average Record
Temperature  
Mean Temperature 48 °F -  
Max Temperature 55 °F 59 °F 70 °F (1954)
Min Temperature 39 °F 39 °F 20 °F (1968)
Degree Days  
Heating Degree Days 16    
Moisture  
Dew Point 32 °F    
Average Humidity 60    
Maximum Humidity 89    
Minimum Humidity 23    
Precipitation  
Precipitation 0.00 in - - ()
Sea Level Pressure  
Sea Level Pressure 30.05 in    
Wind  
Wind Speed 9 mph (WNW)    
Max Wind Speed 14 mph    
Max Gust Speed 21 mph    
Visibility 10 miles    
Events      
Averages and records for this station are not official NWS values.
T = Trace of Precipitation, MM = Missing Value Source: NWS Daily Summary

Daily Weather History Graph

Daily Weather History Graph

Search for Another Location

Airport:

Trip Planner

Search our weather history database for the weather conditions in past years. The results will help you decide how hot, cold, wet, or windy it might be!

Date:

Astronomy

Feb. 20, 2013 Rise Set
Actual Time 6:46 AM EST 5:54 PM EST
Civil Twilight 6:20 AM EST 6:20 PM EST
Nautical Twilight 5:51 AM EST 6:49 PM EST
Astronomical Twilight 5:22 AM EST 7:18 PM EST
Moon 1:21 PM EST (2/20) 2:57 AM EST (2/20)
Length of Visible Light 11h 59m
Length of Day
11h 08m
Waxing Gibbous, 76% of the Moon is Illuminated
Feb 20
Waxing Gibbous
Feb 25
Full
Mar 4
Last Quarter
Mar 11
New
Mar 19
First Quarter

Hourly Weather History & Observations

Time (EST) Temp. Windchill Dew Point Humidity Pressure Visibility Wind Dir Wind Speed Gust Speed Precip Events Conditions
12:58 AM 48.9 °F - 43.0 °F 80% 29.96 in 10.0 mi West 8.1 mph - N/A   Clear
1:58 AM 48.0 °F - 43.0 °F 83% 29.97 in 10.0 mi West 9.2 mph - N/A   Clear
2:58 AM 46.9 °F - 43.0 °F 86% 29.98 in 10.0 mi West 8.1 mph - N/A   Clear
3:58 AM 46.0 °F 40.6 °F 43.0 °F 89% 29.98 in 10.0 mi WNW 11.5 mph - N/A   Clear
4:58 AM 45.0 °F 40.1 °F 41.0 °F 86% 30.01 in 10.0 mi NW 9.2 mph - N/A   Clear
5:58 AM 43.0 °F 38.2 °F 39.0 °F 86% 30.04 in 10.0 mi NW 8.1 mph - N/A   Clear
6:58 AM 42.1 °F 36.6 °F 36.0 °F 79% 30.07 in 10.0 mi NW 9.2 mph - N/A   Clear
7:58 AM 43.0 °F 37.2 °F 30.9 °F 62% 30.09 in 10.0 mi NW 10.4 mph - N/A   Clear
8:58 AM 44.1 °F 38.1 °F 28.0 °F 53% 30.10 in 10.0 mi NW 11.5 mph - N/A   Clear
9:58 AM 46.9 °F - 23.0 °F 39% 30.08 in 10.0 mi NW 13.8 mph 20.7 mph N/A   Clear
10:58 AM 51.1 °F - 21.0 °F 31% 30.09 in 10.0 mi NW 10.4 mph - N/A   Clear
11:58 AM 53.1 °F - 18.0 °F 25% 30.07 in 10.0 mi WNW 12.7 mph - N/A   Clear
12:58 PM 54.0 °F - 18.0 °F 24% 30.04 in 10.0 mi West 10.4 mph - N/A   Clear
1:58 PM 55.0 °F - 17.1 °F 23% 30.02 in 10.0 mi West 10.4 mph - N/A   Clear
2:58 PM 54.0 °F - 23.0 °F 30% 30.01 in 10.0 mi SW 10.4 mph - N/A   Clear
4:58 PM 52.0 °F - 21.9 °F 31% 30.02 in 10.0 mi NW 10.4 mph - N/A   Clear
5:58 PM 48.9 °F - 21.9 °F 35% 30.05 in 10.0 mi NW 10.4 mph - N/A   Clear
6:58 PM 48.0 °F - 37.0 °F 66% 30.08 in 10.0 mi WSW 5.8 mph - N/A   Clear
7:58 PM 48.9 °F - 37.9 °F 66% 30.09 in 10.0 mi West 8.1 mph - N/A   Clear
8:58 PM 46.9 °F - 39.0 °F 74% 30.11 in 10.0 mi West 6.9 mph - N/A   Clear
9:58 PM 45.0 °F 43.5 °F 39.0 °F 80% 30.12 in 10.0 mi WSW 3.5 mph - N/A   Clear
10:58 PM 39.9 °F - 37.0 °F 89% 30.11 in 10.0 mi Calm Calm - N/A   Clear